Year,Month,Day,Hour,Minute,Value (Times are PST for temperature in C)
2012,07,10,07,02,12.10
2012,07,10,07,03,12.20
2012,07,10,07,04,12.20
2012,07,10,07,05,12.20
2012,07,10,07,06,12.30
2012,07,10,07,07,12.30
2012,07,10,07,08,12.30
2012,07,10,07,09,12.30
2012,07,10,07,10,12.40
2012,07,10,07,11,12.40
2012,07,10,07,12,12.50
2012,07,10,07,13,12.50
2012,07,10,07,14,12.60
2012,07,10,07,15,12.60
2012,07,10,07,16,12.60
2012,07,10,07,17,12.70
2012,07,10,07,18,12.70
2012,07,10,07,19,12.80
2012,07,10,07,20,12.80
2012,07,10,07,21,12.80
2012,07,10,07,22,12.90
2012,07,10,07,23,12.90
2012,07,10,07,24,13.00
2012,07,10,07,25,13.00
2012,07,10,07,26,13.10
2012,07,10,07,27,13.10
2012,07,10,07,28,13.20
2012,07,10,07,29,13.20
2012,07,10,07,30,13.20
2012,07,10,07,31,13.30
2012,07,10,07,32,13.30
2012,07,10,07,33,13.40
2012,07,10,07,34,13.50
2012,07,10,07,35,13.50
2012,07,10,07,36,13.60
2012,07,10,07,37,13.60
2012,07,10,07,38,13.70
2012,07,10,07,39,13.70
2012,07,10,07,40,13.80
2012,07,10,07,41,13.90
2012,07,10,07,42,13.90
2012,07,10,07,43,14.00
2012,07,10,07,44,14.00
2012,07,10,07,45,14.10
2012,07,10,07,46,14.10
2012,07,10,07,47,14.20
2012,07,10,07,48,14.20
2012,07,10,07,49,14.20
2012,07,10,07,50,14.30
2012,07,10,07,51,14.30
2012,07,10,07,52,14.40
2012,07,10,07,53,14.40
2012,07,10,07,54,14.40
2012,07,10,07,55,14.50
2012,07,10,07,56,14.60
2012,07,10,07,57,14.60
2012,07,10,07,58,14.70
2012,07,10,07,59,14.70
2012,07,10,08,00,14.80
2012,07,10,08,01,14.80
2012,07,10,08,02,14.90
2012,07,10,08,03,14.90
2012,07,10,08,04,15.00
2012,07,10,08,05,15.10
2012,07,10,08,06,15.20
2012,07,10,08,07,15.20
2012,07,10,08,08,15.30
2012,07,10,08,09,15.40
2012,07,10,08,10,15.40
2012,07,10,08,11,15.50
2012,07,10,08,12,15.60
2012,07,10,08,13,15.70
2012,07,10,08,14,15.70
2012,07,10,08,15,15.80
2012,07,10,08,16,15.90
2012,07,10,08,17,16.00
2012,07,10,08,18,16.10
2012,07,10,08,19,16.20
2012,07,10,08,20,16.30
2012,07,10,08,21,16.40
2012,07,10,08,22,16.40
2012,07,10,08,23,16.50
2012,07,10,08,24,16.50
2012,07,10,08,25,16.60
2012,07,10,08,26,16.60
2012,07,10,08,27,16.70
2012,07,10,08,28,16.80
2012,07,10,08,29,16.80
2012,07,10,08,30,16.90
2012,07,10,08,31,16.90
2012,07,10,08,32,16.90
2012,07,10,08,33,17.00
2012,07,10,08,34,17.10
2012,07,10,08,35,17.10
2012,07,10,08,36,17.20
2012,07,10,08,37,17.30
2012,07,10,08,38,17.30
2012,07,10,08,39,17.30
2012,07,10,08,40,17.30
2012,07,10,08,41,17.40
2012,07,10,08,42,17.40
2012,07,10,08,43,17.40
2012,07,10,08,44,17.40
2012,07,10,08,45,17.40
2012,07,10,08,46,17.40
2012,07,10,08,47,17.40
2012,07,10,08,48,17.40
2012,07,10,08,49,17.40
2012,07,10,08,50,17.40
2012,07,10,08,51,17.50
2012,07,10,08,52,17.50
2012,07,10,08,53,17.60
2012,07,10,08,54,17.60
2012,07,10,08,55,17.60
2012,07,10,08,56,17.60
2012,07,10,08,57,17.60
2012,07,10,08,58,17.70
2012,07,10,08,59,17.70
2012,07,10,09,00,17.70
2012,07,10,09,01,17.80
2012,07,10,09,02,17.80
2012,07,10,09,03,17.80
2012,07,10,09,04,17.80
2012,07,10,09,05,17.80
2012,07,10,09,06,17.80
2012,07,10,09,07,17.70
2012,07,10,09,08,17.60
2012,07,10,09,09,17.50
2012,07,10,09,10,17.50
2012,07,10,09,11,17.40
2012,07,10,09,12,17.40
2012,07,10,09,13,17.40
2012,07,10,09,14,17.40
2012,07,10,09,15,17.30
2012,07,10,09,16,17.30
2012,07,10,09,17,17.30
2012,07,10,09,18,17.30
2012,07,10,09,19,17.20
2012,07,10,09,20,17.20
2012,07,10,09,21,17.20
2012,07,10,09,22,17.20
2012,07,10,09,23,17.20
2012,07,10,09,24,17.20
2012,07,10,09,25,17.20
2012,07,10,09,26,17.20
2012,07,10,09,27,17.20
2012,07,10,09,28,17.20
2012,07,10,09,29,17.30
2012,07,10,09,30,17.30
2012,07,10,09,31,17.30
2012,07,10,09,32,17.30
2012,07,10,09,33,17.30
2012,07,10,09,34,17.30
2012,07,10,09,35,17.30
2012,07,10,09,36,17.30
2012,07,10,09,37,17.30
2012,07,10,09,38,17.30
2012,07,10,09,39,17.30
2012,07,10,09,40,17.30
2012,07,10,09,41,17.30
2012,07,10,09,42,17.30
2012,07,10,09,43,17.40
2012,07,10,09,44,17.40
2012,07,10,09,45,17.40
2012,07,10,09,46,17.40
2012,07,10,09,47,17.40
2012,07,10,09,48,17.40
2012,07,10,09,49,17.50
2012,07,10,09,50,17.50
2012,07,10,09,51,17.60
2012,07,10,09,52,17.60
2012,07,10,09,53,17.60
2012,07,10,09,54,17.60
2012,07,10,09,55,17.50
2012,07,10,09,56,17.50
2012,07,10,09,57,17.50
2012,07,10,09,58,17.60
2012,07,10,09,59,17.60
2012,07,10,10,00,17.60
2012,07,10,10,01,17.70
2012,07,10,10,02,17.70
2012,07,10,10,03,17.80
2012,07,10,10,04,17.80
2012,07,10,10,05,17.80
2012,07,10,10,06,17.80
2012,07,10,10,07,17.80
2012,07,10,10,08,17.90
2012,07,10,10,09,18.00
2012,07,10,10,10,18.10
2012,07,10,10,11,18.20
2012,07,10,10,12,18.10
2012,07,10,10,13,18.00
2012,07,10,10,14,18.00
2012,07,10,10,15,17.90
2012,07,10,10,16,17.90
2012,07,10,10,17,17.90
2012,07,10,10,18,17.90
2012,07,10,10,19,17.90
2012,07,10,10,20,17.90
2012,07,10,10,21,17.90
2012,07,10,10,22,18.00
2012,07,10,10,23,17.90
2012,07,10,10,24,17.90
2012,07,10,10,25,17.90
2012,07,10,10,26,17.90
2012,07,10,10,27,17.90
2012,07,10,10,28,17.90
2012,07,10,10,29,18.00
2012,07,10,10,30,18.00
2012,07,10,10,31,18.10
2012,07,10,10,32,18.10
2012,07,10,10,33,18.20
2012,07,10,10,34,18.20
2012,07,10,10,35,18.30
2012,07,10,10,36,18.40
2012,07,10,10,37,18.40
2012,07,10,10,38,18.50
2012,07,10,10,39,18.50
2012,07,10,10,40,18.60
2012,07,10,10,41,18.70
2012,07,10,10,42,18.60
2012,07,10,10,43,18.70
2012,07,10,10,44,18.70
2012,07,10,10,45,18.70
2012,07,10,10,46,18.70
2012,07,10,10,47,18.80
2012,07,10,10,48,18.90
2012,07,10,10,49,19.10
2012,07,10,10,50,19.20
2012,07,10,10,51,19.40
2012,07,10,10,52,19.40
2012,07,10,10,53,19.50
2012,07,10,10,54,19.60
2012,07,10,10,55,19.60
2012,07,10,10,56,19.60
2012,07,10,10,57,19.60
2012,07,10,10,58,19.50
2012,07,10,10,59,19.40
2012,07,10,11,00,19.30
2012,07,10,11,01,19.30
2012,07,10,11,02,19.20
2012,07,10,11,03,19.20
2012,07,10,11,04,19.10
2012,07,10,11,05,19.00
2012,07,10,11,06,18.90
2012,07,10,11,07,18.80
2012,07,10,11,08,18.60
2012,07,10,11,09,18.50
2012,07,10,11,10,18.40
2012,07,10,11,11,18.40
2012,07,10,11,12,18.30
2012,07,10,11,13,18.30
2012,07,10,11,14,18.30
2012,07,10,11,15,18.30
2012,07,10,11,16,18.30
2012,07,10,11,17,18.30
2012,07,10,11,18,18.30
2012,07,10,11,19,18.30
2012,07,10,11,20,18.30
2012,07,10,11,21,18.30
2012,07,10,11,22,18.30
2012,07,10,11,23,18.30
2012,07,10,11,24,18.40
2012,07,10,11,25,18.40
2012,07,10,11,26,18.50
2012,07,10,11,27,18.50
2012,07,10,11,28,18.50
2012,07,10,11,29,18.50
2012,07,10,11,30,18.60
2012,07,10,11,31,18.60
2012,07,10,11,32,18.60
2012,07,10,11,33,18.60
2012,07,10,11,34,18.60
2012,07,10,11,35,18.60
2012,07,10,11,36,18.70
2012,07,10,11,37,18.80
2012,07,10,11,38,18.90
2012,07,10,11,39,18.90
2012,07,10,11,40,18.90
2012,07,10,11,41,19.00
2012,07,10,11,42,19.00
2012,07,10,11,43,19.10
2012,07,10,11,44,19.10
2012,07,10,11,45,19.10
2012,07,10,11,46,19.10
2012,07,10,11,47,19.10
2012,07,10,11,48,19.10
2012,07,10,11,49,19.10
2012,07,10,11,50,19.10
2012,07,10,11,51,19.20
2012,07,10,11,52,19.20
2012,07,10,11,53,19.20
2012,07,10,11,54,19.20
2012,07,10,11,55,19.10
2012,07,10,11,56,19.10
2012,07,10,11,57,19.10
2012,07,10,11,58,19.10
2012,07,10,11,59,19.10
2012,07,10,12,00,19.10
2012,07,10,12,01,19.10
2012,07,10,12,02,19.20
2012,07,10,12,03,19.20
2012,07,10,12,04,19.20
2012,07,10,12,05,19.20
2012,07,10,12,06,19.20
2012,07,10,12,07,19.20
2012,07,10,12,08,19.20
2012,07,10,12,09,19.20
2012,07,10,12,10,19.20
2012,07,10,12,11,19.20
2012,07,10,12,12,19.10
2012,07,10,12,13,19.10
2012,07,10,12,14,19.00
2012,07,10,12,15,19.00
2012,07,10,12,16,19.00
2012,07,10,12,17,19.00
2012,07,10,12,18,19.00
2012,07,10,12,19,19.00
2012,07,10,12,20,19.00
2012,07,10,12,21,19.00
2012,07,10,12,22,19.00
2012,07,10,12,23,19.00
2012,07,10,12,24,19.00
2012,07,10,12,25,19.10
2012,07,10,12,26,19.10
2012,07,10,12,27,19.20
2012,07,10,12,28,19.30
2012,07,10,12,29,19.30
2012,07,10,12,30,19.40
2012,07,10,12,31,19.40
2012,07,10,12,32,19.30
2012,07,10,12,33,19.30
2012,07,10,12,34,19.30
2012,07,10,12,35,19.30
2012,07,10,12,36,19.20
2012,07,10,12,37,19.20
2012,07,10,12,38,19.20
2012,07,10,12,39,19.20
2012,07,10,12,40,19.10
2012,07,10,12,41,19.10
2012,07,10,12,42,19.00
2012,07,10,12,43,18.90
2012,07,10,12,44,18.90
2012,07,10,12,45,18.90
2012,07,10,12,46,18.90
2012,07,10,12,47,18.90
2012,07,10,12,48,18.80
2012,07,10,12,49,18.80
2012,07,10,12,50,18.80
2012,07,10,12,51,18.70
2012,07,10,12,52,18.70
2012,07,10,12,53,18.70
2012,07,10,12,54,18.70
2012,07,10,12,55,18.80
2012,07,10,12,56,18.80
2012,07,10,12,57,18.90
2012,07,10,12,58,19.00
2012,07,10,12,59,19.10
2012,07,10,13,00,19.20
2012,07,10,13,01,19.20
2012,07,10,13,02,19.20
2012,07,10,13,03,19.20
2012,07,10,13,04,19.20
2012,07,10,13,05,19.30
2012,07,10,13,06,19.30
2012,07,10,13,07,19.40
2012,07,10,13,08,19.50
2012,07,10,13,09,19.50
2012,07,10,13,10,19.50
2012,07,10,13,11,19.50
2012,07,10,13,12,19.50
2012,07,10,13,13,19.50
2012,07,10,13,14,19.60
2012,07,10,13,15,19.60
2012,07,10,13,16,19.70
2012,07,10,13,17,19.70
2012,07,10,13,18,19.70
2012,07,10,13,19,19.80
2012,07,10,13,20,19.80
2012,07,10,13,21,19.80
2012,07,10,13,22,19.80
2012,07,10,13,23,19.90
2012,07,10,13,24,19.90
2012,07,10,13,25,19.90
2012,07,10,13,26,20.00
2012,07,10,13,27,20.00
2012,07,10,13,28,20.10
2012,07,10,13,29,20.10
2012,07,10,13,30,20.20
2012,07,10,13,31,20.20
2012,07,10,13,32,20.20
2012,07,10,13,33,20.20
2012,07,10,13,34,20.30
2012,07,10,13,35,20.30
2012,07,10,13,36,20.30
2012,07,10,13,37,20.30
2012,07,10,13,38,20.30
2012,07,10,13,39,20.30
2012,07,10,13,40,20.30
2012,07,10,13,41,20.40
2012,07,10,13,42,20.40
2012,07,10,13,43,20.50
2012,07,10,13,44,20.50
2012,07,10,13,45,20.60
2012,07,10,13,46,20.70
2012,07,10,13,47,20.70
2012,07,10,13,48,20.70
2012,07,10,13,49,20.80
2012,07,10,13,50,20.80
2012,07,10,13,51,20.90
2012,07,10,13,52,21.00
2012,07,10,13,53,21.10
2012,07,10,13,54,21.00
2012,07,10,13,55,21.00
2012,07,10,13,56,20.90
2012,07,10,13,57,20.90
2012,07,10,13,58,20.90
2012,07,10,13,59,20.90
2012,07,10,14,00,20.90
2012,07,10,14,01,20.90
2012,07,10,14,02,21.00
2012,07,10,14,03,21.00
2012,07,10,14,04,21.10
2012,07,10,14,05,21.10
2012,07,10,14,06,21.20
2012,07,10,14,07,21.20
2012,07,10,14,08,21.20
2012,07,10,14,09,21.30
2012,07,10,14,10,21.30
2012,07,10,14,11,21.30
2012,07,10,14,12,21.30
2012,07,10,14,13,21.30
2012,07,10,14,14,21.30
2012,07,10,14,15,21.30
2012,07,10,14,16,21.30
2012,07,10,14,17,21.30
2012,07,10,14,18,21.30
2012,07,10,14,19,21.30
2012,07,10,14,20,21.30
2012,07,10,14,21,21.30
2012,07,10,14,22,21.30
2012,07,10,14,23,21.30
2012,07,10,14,24,21.30
2012,07,10,14,25,21.30
2012,07,10,14,26,21.40
2012,07,10,14,27,21.40
2012,07,10,14,28,21.40
2012,07,10,14,29,21.40
2012,07,10,14,30,21.50
2012,07,10,14,31,21.50
2012,07,10,14,32,21.50
2012,07,10,14,33,21.50
2012,07,10,14,34,21.50
2012,07,10,14,35,21.50
2012,07,10,14,36,21.50
2012,07,10,14,37,21.40
2012,07,10,14,38,21.40
2012,07,10,14,39,21.50
2012,07,10,14,40,21.60
2012,07,10,14,41,21.60
2012,07,10,14,42,21.70
2012,07,10,14,43,21.70
2012,07,10,14,44,21.70
2012,07,10,14,45,21.80
2012,07,10,14,46,21.80
2012,07,10,14,47,21.80
2012,07,10,14,48,21.80
2012,07,10,14,49,21.80
2012,07,10,14,50,21.80
2012,07,10,14,51,21.80
2012,07,10,14,52,21.80
2012,07,10,14,53,21.70
2012,07,10,14,54,21.70
2012,07,10,14,55,21.70
2012,07,10,14,56,21.70
2012,07,10,14,57,21.70
2012,07,10,14,58,21.60
2012,07,10,14,59,21.60
2012,07,10,15,00,21.60
2012,07,10,15,01,21.60
2012,07,10,15,02,21.60
2012,07,10,15,03,21.60
2012,07,10,15,04,21.60
2012,07,10,15,05,21.60
2012,07,10,15,06,21.60
2012,07,10,15,07,21.60
2012,07,10,15,08,21.60
2012,07,10,15,09,21.60
2012,07,10,15,10,21.70
2012,07,10,15,11,21.70
2012,07,10,15,12,21.70
2012,07,10,15,13,21.70
2012,07,10,15,14,21.70
2012,07,10,15,15,21.70
2012,07,10,15,16,21.70
2012,07,10,15,17,21.70
2012,07,10,15,18,21.60
2012,07,10,15,19,21.60
2012,07,10,15,20,21.50
2012,07,10,15,21,21.40
2012,07,10,15,22,21.50
2012,07,10,15,23,21.50
2012,07,10,15,24,21.50
2012,07,10,15,25,21.50
2012,07,10,15,26,21.50
2012,07,10,15,27,21.50
2012,07,10,15,28,21.60
2012,07,10,15,29,21.60
2012,07,10,15,30,21.70
2012,07,10,15,31,21.70
2012,07,10,15,32,21.70
2012,07,10,15,33,21.80
2012,07,10,15,34,21.80
2012,07,10,15,35,21.80
2012,07,10,15,36,21.80
2012,07,10,15,37,21.80
2012,07,10,15,38,21.80
2012,07,10,15,39,21.80
2012,07,10,15,40,21.80
2012,07,10,15,41,21.80
2012,07,10,15,42,21.80
2012,07,10,15,43,21.80
2012,07,10,15,44,21.80
2012,07,10,15,45,21.80
2012,07,10,15,46,21.80
2012,07,10,15,47,21.90
2012,07,10,15,48,21.90
2012,07,10,15,49,22.00
2012,07,10,15,50,22.00
2012,07,10,15,51,22.10
2012,07,10,15,52,22.10
2012,07,10,15,53,22.00
2012,07,10,15,54,22.00
2012,07,10,15,55,21.90
2012,07,10,15,56,21.80
2012,07,10,15,57,21.80
2012,07,10,15,58,21.70
2012,07,10,15,59,21.70
2012,07,10,16,00,21.70
2012,07,10,16,01,21.60
2012,07,10,16,02,21.60
2012,07,10,16,03,21.60
2012,07,10,16,04,21.60
2012,07,10,16,05,21.60
2012,07,10,16,06,21.60
2012,07,10,16,07,21.60
2012,07,10,16,08,21.50
2012,07,10,16,09,21.50
2012,07,10,16,10,21.50
2012,07,10,16,11,21.50
2012,07,10,16,12,21.50
2012,07,10,16,13,21.50
2012,07,10,16,14,21.50
2012,07,10,16,15,21.50
2012,07,10,16,16,21.50
2012,07,10,16,17,21.50
2012,07,10,16,18,21.50
2012,07,10,16,19,21.60
2012,07,10,16,20,21.70
2012,07,10,16,21,21.70
2012,07,10,16,22,21.80
2012,07,10,16,23,21.80
2012,07,10,16,24,21.80
2012,07,10,16,25,21.70
2012,07,10,16,26,21.70
2012,07,10,16,27,21.70
2012,07,10,16,28,21.60
2012,07,10,16,29,21.60
2012,07,10,16,30,21.60
2012,07,10,16,31,21.70
2012,07,10,16,32,21.70
2012,07,10,16,33,21.70
2012,07,10,16,34,21.70
2012,07,10,16,35,21.70
2012,07,10,16,36,21.70
2012,07,10,16,37,21.70
2012,07,10,16,38,21.70
2012,07,10,16,39,21.60
2012,07,10,16,40,21.60
2012,07,10,16,41,21.60
2012,07,10,16,42,21.50
2012,07,10,16,43,21.50
2012,07,10,16,44,21.50
2012,07,10,16,45,21.50
2012,07,10,16,46,21.40
2012,07,10,16,47,21.40
2012,07,10,16,48,21.40
2012,07,10,16,49,21.40
2012,07,10,16,50,21.40
2012,07,10,16,51,21.40
2012,07,10,16,52,21.40
2012,07,10,16,53,21.40
2012,07,10,16,54,21.40
2012,07,10,16,55,21.40
2012,07,10,16,56,21.40
2012,07,10,16,57,21.40
2012,07,10,16,58,21.40
2012,07,10,16,59,21.40
2012,07,10,17,00,21.40
2012,07,10,17,01,21.40
2012,07,10,17,02,21.30
2012,07,10,17,03,21.30
2012,07,10,17,04,21.30
2012,07,10,17,05,21.20
2012,07,10,17,06,21.10
2012,07,10,17,07,21.10
2012,07,10,17,08,21.00
2012,07,10,17,09,21.00
2012,07,10,17,10,21.00
2012,07,10,17,11,21.00
2012,07,10,17,12,21.00
2012,07,10,17,13,21.00
2012,07,10,17,14,21.00
2012,07,10,17,15,21.00
2012,07,10,17,16,21.00
2012,07,10,17,17,21.00
2012,07,10,17,18,21.00
2012,07,10,17,19,21.00
2012,07,10,17,20,21.10
2012,07,10,17,21,21.10
2012,07,10,17,22,21.10
2012,07,10,17,23,21.10
2012,07,10,17,24,21.10
2012,07,10,17,25,21.10
2012,07,10,17,26,21.10
2012,07,10,17,27,21.10
2012,07,10,17,28,21.20
2012,07,10,17,29,21.20
2012,07,10,17,30,21.20
2012,07,10,17,31,21.30
2012,07,10,17,32,21.30
2012,07,10,17,33,21.30
2012,07,10,17,34,21.30
2012,07,10,17,35,21.30
2012,07,10,17,36,21.40
2012,07,10,17,37,21.40
2012,07,10,17,38,21.40
2012,07,10,17,39,21.40
2012,07,10,17,40,21.50
2012,07,10,17,41,21.60
2012,07,10,17,42,21.60
2012,07,10,17,43,21.60
2012,07,10,17,44,21.70
2012,07,10,17,45,21.70
2012,07,10,17,46,21.70
2012,07,10,17,47,21.70
2012,07,10,17,48,21.70
2012,07,10,17,49,21.70
2012,07,10,17,50,21.70
2012,07,10,17,51,21.60
2012,07,10,17,52,21.60
2012,07,10,17,53,21.60
2012,07,10,17,54,21.50
2012,07,10,17,55,21.50
2012,07,10,17,56,21.50
2012,07,10,17,57,21.50
2012,07,10,17,58,21.40
2012,07,10,17,59,21.40
2012,07,10,18,00,21.50
2012,07,10,18,01,21.50
2012,07,10,18,02,21.60
2012,07,10,18,03,21.60
2012,07,10,18,04,21.60
2012,07,10,18,05,21.60
2012,07,10,18,06,21.60
2012,07,10,18,07,21.60
2012,07,10,18,08,21.70
2012,07,10,18,09,21.70
2012,07,10,18,10,21.70
2012,07,10,18,11,21.70
2012,07,10,18,12,21.70
2012,07,10,18,13,21.80
2012,07,10,18,14,21.80
2012,07,10,18,15,21.80
2012,07,10,18,16,21.80
2012,07,10,18,17,21.80
2012,07,10,18,18,21.90
2012,07,10,18,19,21.90
2012,07,10,18,20,21.90
2012,07,10,18,21,22.00
2012,07,10,18,22,22.00
2012,07,10,18,23,22.00
2012,07,10,18,24,22.00
2012,07,10,18,25,22.00
2012,07,10,18,26,22.00
2012,07,10,18,27,22.00
2012,07,10,18,28,22.00
2012,07,10,18,29,22.00
2012,07,10,18,30,22.00
2012,07,10,18,31,22.00
2012,07,10,18,32,22.00
2012,07,10,18,33,22.00
2012,07,10,18,34,22.00
2012,07,10,18,35,22.00
2012,07,10,18,36,22.00
2012,07,10,18,37,22.00
2012,07,10,18,38,22.00
2012,07,10,18,39,21.90
2012,07,10,18,40,21.90
2012,07,10,18,41,21.90
2012,07,10,18,42,21.80
2012,07,10,18,43,21.80
2012,07,10,18,44,21.80
2012,07,10,18,45,21.80
2012,07,10,18,46,21.80
2012,07,10,18,47,21.70
2012,07,10,18,48,21.70
2012,07,10,18,49,21.70
2012,07,10,18,50,21.70
2012,07,10,18,51,21.70
2012,07,10,18,52,21.80
2012,07,10,18,53,21.70
2012,07,10,18,54,21.70
2012,07,10,18,55,21.70
2012,07,10,18,56,21.70
2012,07,10,18,57,21.60
2012,07,10,18,58,21.60
2012,07,10,18,59,21.50
2012,07,10,19,00,21.50
2012,07,10,19,01,21.40
2012,07,10,19,02,21.40
2012,07,10,19,03,21.30
2012,07,10,19,04,21.30
2012,07,10,19,05,21.30
2012,07,10,19,06,21.20
2012,07,10,19,07,21.20
2012,07,10,19,08,21.20
2012,07,10,19,09,21.20
2012,07,10,19,10,21.10
2012,07,10,19,11,21.10
2012,07,10,19,12,21.10
2012,07,10,19,13,21.10
2012,07,10,19,14,21.10
2012,07,10,19,15,21.10
2012,07,10,19,16,21.10
2012,07,10,19,17,21.10
2012,07,10,19,18,21.10
2012,07,10,19,19,21.00
2012,07,10,19,20,21.00
2012,07,10,19,21,21.00
2012,07,10,19,22,20.90
2012,07,10,19,23,20.90
2012,07,10,19,24,20.90
2012,07,10,19,25,20.80
2012,07,10,19,26,20.80
2012,07,10,19,27,20.80
2012,07,10,19,28,20.70
2012,07,10,19,29,20.70
2012,07,10,19,30,20.70
2012,07,10,19,31,20.70
2012,07,10,19,32,20.60
2012,07,10,19,33,20.60
2012,07,10,19,34,20.60
2012,07,10,19,35,20.60
2012,07,10,19,36,20.60
2012,07,10,19,37,20.60
2012,07,10,19,38,20.60
2012,07,10,19,39,20.60
2012,07,10,19,40,20.60
2012,07,10,19,41,20.60
2012,07,10,19,42,20.60
2012,07,10,19,43,20.60
2012,07,10,19,44,20.60
2012,07,10,19,45,20.60
2012,07,10,19,46,20.60
2012,07,10,19,47,20.60
2012,07,10,19,48,20.70
2012,07,10,19,49,20.70
2012,07,10,19,50,20.70
2012,07,10,19,51,20.70
2012,07,10,19,52,20.70
2012,07,10,19,53,20.70
2012,07,10,19,54,20.70
2012,07,10,19,55,20.70
2012,07,10,19,56,20.70
2012,07,10,19,57,20.70
2012,07,10,19,58,20.70
2012,07,10,19,59,20.60
2012,07,10,20,00,20.60
2012,07,10,20,01,20.60
2012,07,10,20,02,20.60
2012,07,10,20,03,20.50
2012,07,10,20,04,20.50
2012,07,10,20,05,20.50
2012,07,10,20,06,20.40
2012,07,10,20,07,20.40
2012,07,10,20,08,20.40
2012,07,10,20,09,20.30
2012,07,10,20,10,20.30
2012,07,10,20,11,20.30
2012,07,10,20,12,20.30
2012,07,10,20,13,20.20
2012,07,10,20,14,20.20
2012,07,10,20,15,20.20
2012,07,10,20,16,20.20
2012,07,10,20,17,20.20
2012,07,10,20,18,20.20
2012,07,10,20,19,20.20
2012,07,10,20,20,20.20
2012,07,10,20,21,20.20
2012,07,10,20,22,20.20
2012,07,10,20,23,20.20
2012,07,10,20,24,20.20
2012,07,10,20,25,20.20
2012,07,10,20,26,20.20
2012,07,10,20,27,20.20
2012,07,10,20,28,20.20
2012,07,10,20,29,20.20
2012,07,10,20,30,20.20
2012,07,10,20,31,20.20
2012,07,10,20,32,20.20
2012,07,10,20,33,20.20
2012,07,10,20,34,20.20
2012,07,10,20,35,20.10
2012,07,10,20,36,20.10
2012,07,10,20,37,20.10
2012,07,10,20,38,20.10
2012,07,10,20,39,20.10
2012,07,10,20,40,20.10
2012,07,10,20,41,20.10
2012,07,10,20,42,20.10
2012,07,10,20,43,20.10
2012,07,10,20,44,20.10
2012,07,10,20,45,20.10
2012,07,10,20,46,20.00
2012,07,10,20,47,20.00
2012,07,10,20,48,20.00
2012,07,10,20,49,20.00
2012,07,10,20,50,19.90
2012,07,10,20,51,19.90
2012,07,10,20,52,19.90
2012,07,10,20,53,19.90
2012,07,10,20,54,19.90
2012,07,10,20,55,19.90
2012,07,10,20,56,19.90
2012,07,10,20,57,19.80
2012,07,10,20,58,19.80
2012,07,10,20,59,19.80
2012,07,10,21,00,19.80
2012,07,10,21,01,19.80
2012,07,10,21,02,19.70
2012,07,10,21,03,19.70
2012,07,10,21,04,19.70
2012,07,10,21,05,19.70
2012,07,10,21,06,19.70
2012,07,10,21,07,19.70
2012,07,10,21,08,19.60
2012,07,10,21,09,19.60
2012,07,10,21,10,19.60
2012,07,10,21,11,19.60
2012,07,10,21,12,19.50
2012,07,10,21,13,19.50
2012,07,10,21,14,19.50
2012,07,10,21,15,19.40
2012,07,10,21,16,19.40
2012,07,10,21,17,19.40
2012,07,10,21,18,19.40
2012,07,10,21,19,19.30
2012,07,10,21,20,19.30
2012,07,10,21,21,19.30
2012,07,10,21,22,19.30
2012,07,10,21,23,19.20
2012,07,10,21,24,19.20
2012,07,10,21,25,19.20
2012,07,10,21,26,19.20
2012,07,10,21,27,19.10
2012,07,10,21,28,19.10
2012,07,10,21,29,19.10
2012,07,10,21,30,19.10
2012,07,10,21,31,19.00
2012,07,10,21,32,19.00
2012,07,10,21,33,19.00
2012,07,10,21,34,18.90
2012,07,10,21,35,18.90
2012,07,10,21,36,18.90
2012,07,10,21,37,18.90
2012,07,10,21,38,18.90
2012,07,10,21,39,18.80
2012,07,10,21,40,18.80
2012,07,10,21,41,18.80
2012,07,10,21,42,18.80
2012,07,10,21,43,18.80
2012,07,10,21,44,18.70
2012,07,10,21,45,18.70
2012,07,10,21,46,18.70
2012,07,10,21,47,18.70
2012,07,10,21,48,18.70
2012,07,10,21,49,18.70
2012,07,10,21,50,18.60
2012,07,10,21,51,18.60
2012,07,10,21,52,18.60
2012,07,10,21,53,18.60
2012,07,10,21,54,18.60
2012,07,10,21,55,18.60
2012,07,10,21,56,18.60
2012,07,10,21,57,18.60
2012,07,10,21,58,18.60
2012,07,10,21,59,18.60
2012,07,10,22,00,18.60
2012,07,10,22,01,18.50
2012,07,10,22,02,18.50
2012,07,10,22,03,18.50
2012,07,10,22,04,18.50
2012,07,10,22,05,18.40
2012,07,10,22,06,18.40
2012,07,10,22,07,18.40
2012,07,10,22,08,18.30
2012,07,10,22,09,18.30
2012,07,10,22,10,18.30
2012,07,10,22,11,18.20
2012,07,10,22,12,18.20
2012,07,10,22,13,18.10
2012,07,10,22,14,18.10
2012,07,10,22,15,18.10
2012,07,10,22,16,18.00
2012,07,10,22,17,18.00
2012,07,10,22,18,17.90
2012,07,10,22,19,17.90
2012,07,10,22,20,17.90
2012,07,10,22,21,17.80
2012,07,10,22,22,17.80
2012,07,10,22,23,17.80
2012,07,10,22,24,17.70
2012,07,10,22,25,17.70
2012,07,10,22,26,17.70
2012,07,10,22,27,17.70
2012,07,10,22,28,17.60
2012,07,10,22,29,17.60
2012,07,10,22,30,17.60
2012,07,10,22,31,17.60
2012,07,10,22,32,17.60
2012,07,10,22,33,17.60
2012,07,10,22,34,17.60
2012,07,10,22,35,17.60
2012,07,10,22,36,17.60
2012,07,10,22,37,17.60
2012,07,10,22,38,17.60
2012,07,10,22,39,17.60
2012,07,10,22,40,17.60
